Flag for Spain Weather past 2 weeks in Las Palmas, Canary Islands, Spain

Now
77 °F

Passing clouds.


Feels Like: 79 °F
Forecast: 72 / 78 °F
Wind: 29 mph from North

Location: Las Palmas De Gran Canaria / Gando

Current Time: Jul 22, 2014 at 10:51:40 AM

Latest Report: Jul 22, 2014 at 10:30 AM


Visibility: N/A

Pressure: 30.07 "Hg

Humidity: 61%

Dew point: 63 °F

Location of Las PalmasLocation

Historic Weather in Las Palmas — Graph

°F

Las Palmas temperature yesterday

Maximum temperature yesterday: 81 °F (at 2:30 PM)
Minimum temperature yesterday: 72 °F (at 12:00 AM)
Average temperature yesterday: 74 °F

Past Weeks' High & Low Weather Summary

 TemperatureHumidityPressure
High81 °F (Jul 14, 2:00 PM)88% (Jul 9, 11:00 PM)30.18 "Hg (Jul 9, 11:00 PM)
Low70 °F (Jul 7, 11:30 PM)48% (Jul 8, 2:30 PM)29.98 "Hg (Jul 8, 3:30 PM)
Average74 °F68%30.06 "Hg
* Reported Jul 7 10:00 AM — Jul 22 10:00 AM, Las Palmas, Weather by CustomWeather, © 2014

Note: Actual official high and low records may vary slightly from our data, if they occured in-between our weather recording intervals... More about our weather records

Advertising

Las Palmas weather history for previous 24 hours

 ConditionsComfort  
Time TempWeatherWind HumidityBarometerVisibility
10:00 AM
Jul 22
75 °FPassing clouds.30 mph61%30.07 "HgN/A
9:30 AM75 °FPassing clouds.28 mph61%30.07 "HgN/A
9:00 AM73 °FPassing clouds.26 mph65%30.07 "HgN/A
8:30 AM72 °FPassing clouds.26 mph69%30.07 "HgN/A
8:00 AM72 °FPassing clouds.23 mph69%30.07 "HgN/A
7:30 AM72 °FPassing clouds.23 mph69%30.04 "HgN/A
7:00 AM72 °FPassing clouds.23 mph69%30.04 "HgN/A
6:30 AM72 °FPassing clouds.23 mph73%30.04 "HgN/A
6:00 AM72 °FPassing clouds.23 mph73%30.04 "HgN/A
5:30 AM72 °FPassing clouds.22 mph69%30.04 "HgN/A
5:00 AM72 °FPassing clouds.22 mph69%30.04 "HgN/A
4:30 AM72 °FPassing clouds.23 mph69%30.04 "HgN/A
4:00 AM72 °FPassing clouds.23 mph69%30.04 "HgN/A
3:30 AM72 °FPassing clouds.24 mph73%30.04 "HgN/A
3:00 AM72 °FPassing clouds.25 mph73%30.07 "HgN/A
2:30 AM72 °FPassing clouds.21 mph69%30.07 "HgN/A
2:00 AM72 °FPassing clouds.21 mph73%30.07 "HgN/A
1:30 AM72 °FPassing clouds.18 mph73%30.09 "HgN/A
1:00 AM72 °FPassing clouds.21 mph69%30.09 "HgN/A
12:30 AM72 °FPassing clouds.23 mph73%30.09 "HgN/A
12:00 AM72 °FPassing clouds.24 mph69%30.09 "HgN/A
11:30 PM
Jul 21
72 °FPassing clouds.22 mph73%30.09 "HgN/A
11:00 PM72 °FPassing clouds.22 mph69%30.09 "HgN/A
10:30 PM72 °FPassing clouds.22 mph78%30.09 "HgN/A
9:30 PM73 °FPassing clouds.21 mph69%30.07 "HgN/A
9:00 PM73 °FPassing clouds.23 mph69%30.07 "HgN/A
8:30 PM73 °FPassing clouds.28 mph69%30.07 "HgN/A
8:00 PM75 °FPassing clouds.31 mph69%30.07 "HgN/A
7:30 PM75 °FPassing clouds.31 mph65%30.07 "HgN/A
7:00 PM75 °FPassing clouds.31 mph69%30.07 "HgN/A
6:30 PM77 °FPassing clouds.31 mph65%30.07 "HgN/A
6:00 PM77 °FPassing clouds.31 mph69%30.07 "HgN/A
5:30 PM77 °FPassing clouds.31 mph65%30.07 "HgN/A
5:00 PM77 °FPassing clouds.31 mph65%30.07 "HgN/A
4:30 PM79 °FPassing clouds.30 mph61%30.07 "HgN/A
4:00 PM79 °FPassing clouds.31 mph58%30.09 "HgN/A
3:30 PM79 °FPassing clouds.30 mph58%30.09 "HgN/A
3:00 PM79 °FPassing clouds.32 mph61%30.09 "HgN/A
2:30 PM81 °FPassing clouds.29 mph54%30.09 "HgN/A
2:00 PM79 °FPassing clouds.30 mph58%30.09 "HgN/A
1:30 PM79 °FPassing clouds.29 mph58%30.12 "HgN/A
1:00 PM79 °FPassing clouds.30 mph58%30.12 "HgN/A
12:30 PM77 °FScattered clouds.29 mph61%30.12 "HgN/A
12:00 PM77 °FScattered clouds.25 mph65%30.12 "HgN/A
11:30 AM77 °FScattered clouds.28 mph61%30.12 "HgN/A
11:00 AM73 °FPartly sunny.26 mph69%30.12 "HgN/A
10:30 AM75 °FPartly sunny.25 mph65%30.12 "HgN/A
10:00 AM73 °FScattered clouds.26 mph69%30.12 "HgN/A
Weather by CustomWeather, © 2014

See weather overviewHow to use our weather pages